This demonstration page uses our WeatherBlox Daily Observations layout. Learn more.

36.19886, -115.1175

Hourly Observations for July 25, 2019

Temp ( °F °C ) Dew Point ( °F °C ) Humidity (%) Winds ( mph kmh ) Pressure ( in mb ) Visibility ( mi km ) Precip ( " mm )
12:53 am 00:53 Clear 88 31.1 58 14.4 36 36 E 6 9 29.91 1013 10 16.09344 0 0
1:53 am 01:53 Mostly Clear 88 31.1 59 15 38 38 NE 5 7 29.91 1013 10 16.09344 0 0
2:53 am 02:53 Partly Cloudy 88 31.1 60 15.6 39 39 Calm 29.88 1012 10 16.09344 0 0
3:53 am 03:53 Clear 86 30 59 15 40 40 Calm 29.91 1013 10 16.09344 0 0
4:53 am 04:53 Clear 86 30 59 15 40 40 E 7 11 29.91 1013 10 16.09344 0 0
5:53 am 05:53 Sunny 86 30 60 15.6 42 42 Calm 29.91 1013 10 16.09344 0 0
6:53 am 06:53 Sunny 87 30.6 60 15.6 40 40 W 3 6 29.94 1014 10 16.09344 0 0
7:53 am 07:53 Partly Cloudy 87 30.6 60 15.6 40 40 Calm 29.97 1015 10 16.09344 0 0
8:53 am 08:53 Cloudy 87 30.6 62 16.7 43 43 NNW 6 9 29.97 1015 10 16.09344 0 0
9:53 am 09:53 Mostly Cloudy 89 31.7 61 16.1 39 39 NNW 10 17 29.97 1015 10 16.09344 0 0
10:53 am 10:53 Sunny 92 33.3 57 13.9 31 31 NW 12 19 29.97 1015 10 16.09344 0 0
11:53 am 11:53 Sunny 94 34.4 58 14.4 30 30 N 8 13 29.97 1015 10 16.09344 0 0
12:04 pm 12:04 Sunny with Nearby Thunderstorms 94 34.4 58 14.4 30 30 NNW 8 13 29.83 1010 10 16.09344 0 0
12:19 pm 12:19 Sunny 96 35.6 57 13.9 27 27 N 9 15 29.83 1010 10 16.09344 0 0
12:53 pm 12:53 Sunny 96 35.6 57 13.9 27 27 VRB 3 6 29.94 1014 10 16.09344 0 0
1:53 pm 13:53 Sunny 96 35.6 56 13.3 26 26 N 6 9 29.91 1013 10 16.09344 0 0
2:53 pm 14:53 Sunny 95 35 55 12.8 26 26 WNW 6 9 29.91 1013 10 16.09344 0 0
3:53 pm 15:53 Sunny 96 35.6 58 14.4 28 28 undefined N/A 29.88 1012 10 16.09344 0 0
4:53 pm 16:53 Sunny 97 36.1 58 14.4 27 27 S 10 17 29.85 1011 10 16.09344 0 0
5:53 pm 17:53 Sunny 97 36.1 58 14.4 27 27 SE 6 9 29.85 1011 10 16.09344 0 0
6:53 pm 18:53 Sunny 97 36.1 58 14.4 27 27 E 3 6 29.83 1010 10 16.09344 0 0
7:53 pm 19:53 Clear 96 35.6 58 14.4 28 28 Calm 29.85 1011 10 16.09344 0 0
8:53 pm 20:53 Clear 94 34.4 57 13.9 29 29 N 7 11 29.88 1012 10 16.09344 0 0
9:53 pm 21:53 Clear 93 33.9 56 13.3 29 29 N 3 6 29.88 1012 10 16.09344 0 0
10:53 pm 22:53 Clear 92 33.3 56 13.3 30 30 NW 9 15 29.88 1012 10 16.09344 0 0
11:25 pm 23:25 Clear with Nearby Thunderstorms 93 33.9 55 12.8 28 28 W 8 13 29.77 1008 10 16.09344 0 0
11:53 pm 23:53 Clear with Thunderstorms 93 33.9 55 12.8 28 28 WNW 9 15 29.88 1012 10 16.09344 0 0

Powered by AerisWeather